Terminal Aerodrome Forecast
Issued by NWS

Home | Current Version | Previous Version | Text Only | Print | Product List | Glossary Off
Versions: 1 2 3 4 5 6 7 8 9 10 11 12 13 14 15

000
FTUS43 KBIS 191030 AAA
TAFMOT
TAF AMD
KMOT 191030Z 1911/2006 20013KT P6SM SKC
     FM191800 23012KT P6SM FEW100 FEW250
     FM192000 27016KT P6SM FEW120 FEW250
     FM192300 30018KT P6SM FEW110 FEW250
     FM200500 32009KT P6SM FEW120 FEW250=

USA.gov is the U.S. government's official web portal to all federal, state and local government web resources and services.